TimeCET,TemperatureF,Dew PointF,Humidity,Sea Level PressureIn,VisibilityMPH,Wind Direction,Wind SpeedMPH,Gust SpeedMPH,PrecipitationIn,Events,Conditions,WindDirDegrees,DateUTC
12:00 AM,39.2,35.6,87,30.01,-9999.0,NNE,9.2,-,N/A,Rain,Light Rain,20,2012-12-12 23:00:00
12:30 AM,39.2,37.4,93,30.01,2.8,NNE,10.4,-,N/A,Rain,Light Rain,20,2012-12-12 23:30:00
1:00 AM,41.0,39.2,93,29.98,3.1,NNE,11.5,-,N/A,Rain,Light Rain,30,2012-12-13 00:00:00
1:30 AM,41.0,39.2,93,29.95,5.6,NNE,11.5,-,N/A,,Overcast,30,2012-12-13 00:30:00
2:00 AM,42.8,41.0,93,29.95,5.6,ENE,6.9,-,N/A,,Overcast,60,2012-12-13 01:00:00
2:30 AM,50.0,44.6,82,29.95,6.2,East,15.0,-,N/A,,Overcast,100,2012-12-13 01:30:00
3:00 AM,50.0,44.6,82,29.95,6.2,ESE,15.0,-,N/A,,Overcast,110,2012-12-13 02:00:00
3:30 AM,50.0,44.6,82,29.95,6.2,ESE,16.1,-,N/A,,Overcast,110,2012-12-13 02:30:00
4:00 AM,50.0,44.6,82,29.92,6.2,ESE,16.1,-,N/A,,Overcast,110,2012-12-13 03:00:00
4:30 AM,50.0,44.6,82,29.92,6.2,East,12.7,-,N/A,,Light Drizzle,100,2012-12-13 03:30:00
5:00 AM,50.0,44.6,82,29.92,6.2,ESE,13.8,-,N/A,,Overcast,110,2012-12-13 04:00:00
5:30 AM,50.0,44.6,82,29.92,6.2,East,15.0,-,N/A,,Overcast,100,2012-12-13 04:30:00
6:00 AM,51.8,44.6,76,29.89,6.2,ESE,16.1,28.8,N/A,,Overcast,110,2012-12-13 05:00:00
6:30 AM,51.8,44.6,76,29.89,6.2,East,18.4,-,N/A,,Overcast,100,2012-12-13 05:30:00
7:00 AM,51.8,44.6,76,29.89,5.6,ESE,16.1,27.6,N/A,Rain,Light Rain,110,2012-12-13 06:00:00
7:30 AM,50.0,46.4,87,29.89,1.9,ESE,15.0,-,N/A,Rain,Rain,120,2012-12-13 06:30:00
8:00 AM,51.8,46.4,82,29.89,6.2,ESE,16.1,27.6,N/A,,Overcast,120,2012-12-13 07:00:00
8:30 AM,51.8,46.4,82,29.89,6.2,ESE,16.1,-,N/A,,Overcast,120,2012-12-13 07:30:00
9:00 AM,51.8,48.2,88,29.89,5.6,ESE,11.5,23.0,N/A,Rain,Light Rain,110,2012-12-13 08:00:00
9:30 AM,53.6,50.0,88,29.89,6.2,SE,12.7,25.3,N/A,,Overcast,130,2012-12-13 08:30:00
10:00 AM,53.6,50.0,88,29.89,6.2,SE,13.8,-,N/A,,Mostly Cloudy,130,2012-12-13 09:00:00
10:30 AM,53.6,50.0,88,29.89,6.2,SE,15.0,-,N/A,,Mostly Cloudy,130,2012-12-13 09:30:00
11:00 AM,53.6,50.0,88,29.92,6.2,SE,13.8,26.5,N/A,,Mostly Cloudy,140,2012-12-13 10:00:00
11:30 AM,55.4,50.0,82,29.89,6.2,SE,13.8,-,N/A,,Mostly Cloudy,130,2012-12-13 10:30:00
12:00 PM,55.4,50.0,82,29.89,6.2,SE,11.5,-,N/A,,Mostly Cloudy,130,2012-12-13 11:00:00
12:30 PM,55.4,50.0,82,29.86,6.2,SE,13.8,-,N/A,,Overcast,130,2012-12-13 11:30:00
1:00 PM,53.6,51.8,94,29.86,6.2,SE,13.8,-,N/A,,Mostly Cloudy,130,2012-12-13 12:00:00
1:30 PM,53.6,51.8,94,29.86,6.2,ESE,12.7,-,N/A,,Mostly Cloudy,120,2012-12-13 12:30:00
2:00 PM,53.6,51.8,94,29.83,6.2,ESE,13.8,-,N/A,,Mostly Cloudy,120,2012-12-13 13:00:00
2:30 PM,55.4,51.8,88,29.80,6.2,ESE,12.7,-,N/A,,Mostly Cloudy,110,2012-12-13 13:30:00
3:00 PM,55.4,51.8,88,29.80,6.2,ESE,12.7,-,N/A,,Mostly Cloudy,120,2012-12-13 14:00:00
3:30 PM,55.4,51.8,88,29.80,6.2,ESE,10.4,-,N/A,,Mostly Cloudy,110,2012-12-13 14:30:00
4:00 PM,55.4,51.8,88,29.77,6.2,ESE,10.4,-,N/A,,Mostly Cloudy,120,2012-12-13 15:00:00
4:30 PM,55.4,50.0,82,29.77,6.2,ESE,9.2,-,N/A,,Overcast,120,2012-12-13 15:30:00
5:00 PM,55.4,50.0,82,29.77,6.2,ESE,8.1,-,N/A,,Overcast,110,2012-12-13 16:00:00
5:30 PM,55.4,50.0,82,29.77,6.2,East,9.2,-,N/A,,Unknown,100,2012-12-13 16:30:00
6:00 PM,55.4,48.2,77,29.74,6.2,ESE,9.2,-,N/A,,Unknown,110,2012-12-13 17:00:00
6:30 PM,55.4,50.0,82,29.74,6.2,East,8.1,-,N/A,,Unknown,100,2012-12-13 17:30:00
7:00 PM,53.6,50.0,88,29.74,6.2,East,11.5,-,N/A,,Unknown,100,2012-12-13 18:00:00
7:30 PM,53.6,48.2,82,29.71,6.2,East,11.5,-,N/A,,Unknown,90,2012-12-13 18:30:00
8:00 PM,55.4,48.2,77,29.71,6.2,SE,8.1,-,N/A,,Unknown,140,2012-12-13 19:00:00
8:30 PM,55.4,46.4,72,29.71,6.2,SSE,6.9,-,N/A,,Unknown,150,2012-12-13 19:30:00
9:00 PM,53.6,46.4,77,29.68,6.2,SSE,3.5,-,N/A,,Unknown,150,2012-12-13 20:00:00
9:30 PM,53.6,44.6,72,29.68,6.2,South,3.5,-,N/A,,Unknown,180,2012-12-13 20:30:00
10:00 PM,53.6,46.4,77,29.68,6.2,Variable,2.3,-,N/A,,Unknown,0,2012-12-13 21:00:00
10:30 PM,53.6,46.4,77,29.71,6.2,SSE,3.5,-,N/A,,Unknown,160,2012-12-13 21:30:00
11:00 PM,51.8,44.6,76,29.71,6.2,NNW,3.5,-,N/A,,Unknown,340,2012-12-13 22:00:00
11:30 PM,50.0,46.4,87,29.71,6.2,North,6.9,-,N/A,,Unknown,360,2012-12-13 22:30:00